Location: Kalberh�ni
(46.4610°N, 7.2453°E)
Time: 02:27:06
(UTC+00:00)

USA 245 - Pass Details

Date: 20 June 2021
Orbit: 262 x 981 km, 97.9° (Epoch: 24 July)

Event Time Altitude Azimuth Distance (km) Brightness Sun altitude
Exits shadow 20:44:46 - 173° (S) 2,307 6.0 -10.4°
Reaches altitude 10° 20:44:56 10° 173° (S) 2,245 5.9 -10.5°
Maximum altitude 20:49:59 74° 258° (WSW) 879 4.4 -11.0°
Drops below altitude 10° 20:56:00 10° 344° (NNW) 2,652 8.0 -11.6°
Sets 20:58:38 0° 346° (NNW) 3,654 8.9 -11.9°
